Weather History for Orlando International, FL

Change the Weather History Date:

Wednesday, December 26, 2012

  Actual Average Record
Temperature  
Mean Temperature 66 °F 61 °F  
Max Temperature 79 °F 71 °F 85 °F (1921)
Min Temperature 52 °F 50 °F 20 °F (1983)
Degree Days  
Heating Degree Days 0 6  
Month to date heating degree days 44 115  
Since 1 July heating degree days 120 162  
Cooling Degree Days 1 2  
Month to date cooling degree days 97 61  
Year to date cooling degree days 3588 3415  
Growing Degree Days 16 (Base 50)    
Moisture  
Dew Point 59 °F    
Average Humidity 75    
Maximum Humidity 93    
Minimum Humidity 57    
Precipitation  
Precipitation 0.10 in 0.08 in 2.10 in (1957)
Month to date precipitation 0.91 2.20  
Year to date precipitation 40.72 50.35  
Sea Level Pressure  
Sea Level Pressure 29.88 in    
Wind  
Wind Speed 14 mph (SW)    
Max Wind Speed 28 mph    
Max Gust Speed 39 mph    
Visibility 10 miles    
Events Rain    
T = Trace of Precipitation, MM = Missing Value Source: NWS Daily Summary

Daily Weather History Graph

Daily Weather History Graph

Search for Another Location

Airport:

Trip Planner

Search our weather history database for the weather conditions in past years. The results will help you decide how hot, cold, wet, or windy it might be!

Date:

Astronomy

Dec. 26, 2012 Rise Set
Actual Time 7:15 AM EST 5:36 PM EST
Civil Twilight 6:49 AM EST 6:02 PM EST
Nautical Twilight 6:20 AM EST 6:31 PM EST
Astronomical Twilight 5:51 AM EST 7:00 PM EST
Moon 4:26 PM EST (12/26) 5:40 AM EST (12/26)
Length of Visible Light 11h 12m
Length of Day
10h 20m
Waxing Gibbous, 97% of the Moon is Illuminated
Dec 26
Waxing Gibbous
Dec 28
Full
Jan 4
Last Quarter
Jan 11
New
Jan 18
First Quarter

Hourly Weather History & Observations

Time (EST) Temp. Dew Point Humidity Pressure Visibility Wind Dir Wind Speed Gust Speed Precip Events Conditions
12:53 AM 64.0 °F 60.1 °F 87% 29.93 in 10.0 mi SSE 9.2 mph - N/A   Scattered Clouds
1:53 AM 64.0 °F 60.1 °F 87% 29.92 in 10.0 mi SSE 9.2 mph - N/A   Partly Cloudy
2:53 AM 63.0 °F 60.1 °F 90% 29.89 in 10.0 mi South 10.4 mph - N/A   Partly Cloudy
3:53 AM 64.9 °F 62.1 °F 90% 29.90 in 10.0 mi South 11.5 mph - N/A   Mostly Cloudy
4:53 AM 66.0 °F 62.1 °F 87% 29.89 in 10.0 mi South 13.8 mph - N/A   Mostly Cloudy
5:53 AM 66.0 °F 62.1 °F 87% 29.86 in 10.0 mi South 12.7 mph - N/A   Mostly Cloudy
6:53 AM 66.9 °F 63.0 °F 87% 29.88 in 10.0 mi South 13.8 mph 20.7 mph N/A   Mostly Cloudy
7:53 AM 66.9 °F 64.0 °F 90% 29.86 in 10.0 mi SSE 13.8 mph - N/A   Mostly Cloudy
8:53 AM 70.0 °F 64.9 °F 84% 29.86 in 10.0 mi South 15.0 mph 26.5 mph N/A   Mostly Cloudy
9:53 AM 73.9 °F 66.9 °F 79% 29.84 in 10.0 mi South 18.4 mph 27.6 mph N/A   Mostly Cloudy
10:53 AM 77.0 °F 66.0 °F 69% 29.84 in 10.0 mi SSW 21.9 mph 29.9 mph N/A   Mostly Cloudy
11:53 AM 78.1 °F 66.0 °F 66% 29.80 in 10.0 mi SSW 21.9 mph 32.2 mph N/A   Mostly Cloudy
12:53 PM 77.0 °F 66.0 °F 69% 29.78 in 7.0 mi SW 16.1 mph 24.2 mph 0.00 in Rain Light Rain
1:12 PM 66.2 °F 62.6 °F 88% 29.82 in 4.0 mi West 19.6 mph 39.1 mph 0.00 in Rain Rain
1:53 PM 66.9 °F 62.6 °F 86% 29.81 in 10.0 mi WSW 10.4 mph - 0.10 in   Overcast
2:53 PM 72.0 °F 68.0 °F 87% 29.80 in 10.0 mi West 11.5 mph 20.7 mph N/A   Mostly Cloudy
3:12 PM 71.6 °F 66.2 °F 83% 29.80 in 10.0 mi West 15.0 mph - N/A   Mostly Cloudy
3:53 PM 72.0 °F 55.9 °F 57% 29.81 in 10.0 mi WSW 19.6 mph 31.1 mph N/A   Mostly Cloudy
4:53 PM 69.1 °F 55.0 °F 61% 29.83 in 10.0 mi West 16.1 mph 26.5 mph N/A   Scattered Clouds
5:53 PM 63.0 °F 53.1 °F 70% 29.87 in 10.0 mi West 13.8 mph 26.5 mph N/A   Scattered Clouds
6:53 PM 60.1 °F 51.1 °F 72% 29.90 in 10.0 mi West 16.1 mph 21.9 mph N/A   Clear
7:53 PM 57.9 °F 50.0 °F 75% 29.93 in 10.0 mi West 12.7 mph 19.6 mph N/A   Clear
8:53 PM 55.9 °F 50.0 °F 80% 29.96 in 10.0 mi West 9.2 mph - N/A   Scattered Clouds
9:53 PM 54.0 °F 48.9 °F 83% 29.99 in 10.0 mi West 9.2 mph - N/A   Scattered Clouds
10:53 PM 53.1 °F 48.0 °F 83% 29.99 in 10.0 mi West 10.4 mph - N/A   Scattered Clouds
11:53 PM 52.0 °F 46.0 °F 80% 30.00 in 10.0 mi West 8.1 mph - N/A   Scattered Clouds